Location: Newark
(44.4156°N, 12.1972°E)
Time: 10:14:23
(UTC+00:00)

STARLINK-1066 - Pass Details

Date: 02 February 2020
Orbit: 349 x 351 km, 53.0° (Epoch: 22 February)

Event Time Altitude Azimuth Distance (km) Brightness Sun altitude
Rises 17:42:53 0° 295° (WNW) 2,176 7.7 -14.8°
Reaches altitude 10° 17:45:08 10° 280° (W) 1,328 6.8 -15.2°
Maximum altitude 17:47:33 23° 225° (SW) 810 5.1 -15.7°
Drops below altitude 10° 17:49:58 10° 169° (S) 1,320 5.5 -16.1°
Enters shadow 17:50:59 - 161° (SSE) 1,685 6.0 -16.3°
